Simultaneous Nadir Overpasses (SNOs) Predictions

Prediction of SNOs between AQUA and NOAA-19 Satellite Orbit:

Table of predicted SNOs for the next 14.0 days since TLE Epoch: 6/29/2018
Index Date (AQUA) Time (AQUA) Lat,Lon (AQUA) SZA (AQUA ) Date (NOAA-19) Time (NOAA-19) Lat,Lon (NOAA-19) SZA (NOAA-19 ) Distance(km) Time Diff (sec)
1 06/30/2018 07:13:17 -80.79,-146.46 120.22 06/30/2018 07:12:15 -80.78,-146.43 120.20 1.28 62
2 06/30/2018 08:02:43 80.78, 21.26 59.78 06/30/2018 08:03:13 80.78, 21.08 59.79 3.27 30
3 07/02/2018 12:47:00 80.77, -49.74 59.93 07/02/2018 12:45:48 80.78, -49.66 59.95 1.56 72
4 07/02/2018 13:36:27 -80.78, 117.88 120.07 07/02/2018 13:36:49 -80.79, 117.93 120.08 1.60 22
5 07/04/2018 19:10:09 80.77,-145.46 60.11 07/04/2018 19:10:22 80.79,-145.49 60.12 2.05 13
6 07/07/2018 00:43:54 -80.79, -49.16 119.62 07/07/2018 00:43:58 -80.78, -49.08 119.64 1.97 4
7 07/09/2018 06:17:37 80.79, 47.40 60.65 07/09/2018 06:17:33 80.78, 47.49 60.63 2.33 4
8 07/11/2018 11:51:21 -80.79, 144.03 119.08 07/11/2018 11:51:07 -80.78, 144.19 119.10 3.04 14
9 07/13/2018 17:25:03 80.76,-119.16 61.21 07/13/2018 17:24:43 80.77,-119.26 61.23 2.00 20




NCC Satellite Simultaneous Nadir Overpasses (SNOs) Prediction Service
